Regional Weather Roundup
Issued by NWS

Home | Current Version | Previous Version | Text Only | Print | Product List | Glossary On
Versions: 1 2 3 4 5 6 7 8 9 10 11 12 13 14 15 16 17 18 19 20 21 22 23 24 25 26 27 28 29 30 31 32 33 34 35 36 37 38 39 40 41 42 43 44 45 46 47 48 49 50
000
ASUS44 KFWD 032115
RWRTX
NORTH TEXAS HOURLY WEATHER ROUNDUP
NATIONAL WEATHER SERVICE FORT WORTH TX
400 PM CDT THU SEP 03 2015

NOTE: "FAIR" INDICATES FEW OR NO CLOUDS BELOW 12,000 FEET WITH NO
SIGNIFICANT WEATHER AND/OR OBSTRUCTIONS TO VISIBILITY.

TXZ118-119-032200-
DALLAS/FORT WORTH METROPLEX

CITY           SKY/WX    TMP DP  RH WIND       PRES   REMARKS
DFW AIRPORT    MOSUNNY   95  62  33 SE8G17    29.89F HX  96
DALLAS LOVE    MOSUNNY   96  61  31 SE10      29.89F HX  96
FTW MEACHAM    MOSUNNY   95  61  32 MISG      29.89F HX  95
DAL-EXECUTIVE  SUNNY     93  60  33 SE10      29.89F HX  93
FTW-ALLIANCE   MOSUNNY   94  61  33 E8        29.89F HX  94
FTW-NAS-JRB    PTSUNNY   96  62  32 VRB7      29.89F HX  97
FTW-SPINKS     PTSUNNY   95  63  34 SE12      29.91F HX  96
ARLINGTON      MOSUNNY   95  61  32 MISG      29.89F HX  95
GRAND PRAIRIE  SUNNY     93  64  38 SE7       29.90F HX  95
ADDISON        MOSUNNY   93  61  33 E14       29.92F HX  93
MESQUITE       MOSUNNY   91  63  38 E7        29.90F HX  92
LANCASTER      SUNNY     92  57  30 E8        29.91F HX  91
$$

TXZ091>094-102>105-117-120-121-131>134-032200-
NORTH CENTRAL TEXAS

CITY           SKY/WX    TMP DP  RH WIND       PRES   REMARKS
SHRMAN/DENISON MOSUNNY   95  64  36 S8        29.91F HX  97
GAINESVILLE    SUNNY     91  62  38 E3G9      29.92F HX  91
BOWIE          MOSUNNY   92  60  35 SE8       29.91F HX  91
BRIDGEPORT     MOSUNNY   94  65  38 SE10      29.91F HX  96
DECATUR        SUNNY     89  58  35 E7        29.92F
DENTON         MOSUNNY   94  63  35 S10G20    29.89F HX  95
MCKINNEY       SUNNY     93  64  38 E9        29.90F HX  94
GREENVILLE     SUNNY     91  61  35 S8        29.91F HX  91
ROCKWALL       MOSUNNY   92  64  39 SE9       29.89F HX  94
TERRELL        MOSUNNY   91  67  44 SE9       29.91F HX  94
WAXAHACHIE     MOSUNNY   93  65  38 SE9       29.91F HX  95
CLEBURNE       SUNNY     93  66  40 E10G16    29.92F HX  96
GRANBURY       SUNNY     91  63  38 E8        29.90F HX  92
$$

TXZ083>090-098>101-113>116-127>130-139>142-154-155-032200-
WESTERN NORTH TEXAS

CITY           SKY/WX    TMP DP  RH WIND       PRES   REMARKS
WICHITA FALLS  MOSUNNY   94  61  33 SE13G22   29.88F HX  94
WF-KICKAPOO    SUNNY     96  57  27 SE9       29.89F HX  95
VERNON         MOSUNNY   97  49  19 S10G20    29.88F HX  94
ABILENE        MOSUNNY   92  59  33 E9G24     29.91F HX  91
ABILENE-DYESS  MOSUNNY   96  62  32 E13       29.89F HX  96
BRECKENRIDGE   MOSUNNY   95  58  28 SE12      29.89F HX  94
GRAHAM         SUNNY     95  62  33 SE6G17    29.88F HX  95
MINERAL WELLS  MOSUNNY   93  64  38 E6        29.89F HX  94
STEPHENVILLE   MOSUNNY   92  61  35 S3        29.94F HX  92
COMANCHE       MOSUNNY   93  62  36 E12       29.92F HX  93
BROWNWOOD      LGT RAIN  90  63  40 E9        29.90F HX  90
COLEMAN        MOSUNNY   94  60  32 NE6G17    29.91F HX  93
BRADY          MOSUNNY   93  61  33 E10       29.91F HX  93
$$

TXZ143>147-156>162-174-175-032200-
CENTRAL TEXAS

CITY           SKY/WX    TMP DP  RH WIND       PRES   REMARKS
WACO           MOSUNNY   95  64  35 SE9G18    29.89F HX  97
WACO-TSTC      PTSUNNY   91  66  43 S7        29.89F HX  94
WACO-MCGREGOR  FAIR      93  67  42 SE7       29.89F HX  96
HILLSBORO      SUNNY     93  63  37 SE7       29.90F HX  94
CORSICANA      MOSUNNY   91  67  44 VRB3      29.91F HX  94
MEXIA          MOSUNNY   93  68  43 E17       29.89F HX  98
HEARNE         MOSUNNY   90  69  49 SE3       29.89F HX  94
CAMERON        CLOUDY    92  69  45 SE10      29.88F HX  97
TEMPLE         PTSUNNY   93  66  40 E13       29.89F HX  96
KILLEEN        SUNNY     91  65  41 SE9       29.89F HX  93
KILLEEN-SKYLRK SUNNY     91  66  43 E8        29.89F HX  94
FORT HOOD      PTSUNNY   93  66  40 E14       29.88F HX  96
GATESVILLE     MOSUNNY   91  64  40 CALM      29.91F HX  93
HAMILTON       SUNNY     91  60  36 SE8       29.92F HX  90
$$

TXZ095>097-106>112-122>126-135>138-148>153-164>167-032200-
EAST TEXAS

CITY           SKY/WX    TMP DP  RH WIND       PRES   REMARKS
PARIS          MOSUNNY   91  61  35 E6        29.91F HX  91
SULPHUR SPRNGS MOSUNNY   94  59  31 E6        29.93F HX  93
MOUNT PLEASANT SUNNY     94  59  30 S6G17     29.92F HX  93
GILMER         SUNNY     90  67  47 SE5       29.91F HX  93
MINEOLA        MOSUNNY   90  64  43 SE6       29.92F HX  91
TYLER          MOSUNNY   92  68  45 VRB6      29.91F HX  96
LONGVIEW       MOSUNNY   92  70  48 VRB6      29.91F HX  97
MARSHALL       SUNNY     94  72  49 S5        29.93F HX 102
ATHENS         MOSUNNY   90  68  48 E6        29.90F HX  93
PALESTINE      MOSUNNY   90  66  45 CALM      29.91F HX  93
JACKSONVILLE   MOSUNNY   90  65  43 S5        29.93F HX  92
HENDERSON      PTSUNNY   90  68  48 CALM      29.92F HX  93
CENTER         FAIR      92  68  45 S3        29.90F HX  96
NACOGDOCHES    MOSUNNY   93  68  43 E7        29.89F HX  97
LUFKIN         PTSUNNY   91  68  46 N5        29.89F HX  95
$$

SUPPLEMENTAL OBSERVATIONS (CENTRAL)

CITY           SKY/WX    TMP DP  RH WIND       PRES   REMARKS
CADDO GRASSLND   N/A     93  63  36 S7          N/A  HX  94
PAT MAYSE LAKE   N/A     91  63  38 SE7         N/A  HX  92
MCGREGOR         N/A     91  64  40 E8G21       N/A  HX  93
TEMPLE           N/A     91  63  38 SE7         N/A  HX  92
$$

SUPPLEMENTAL OBSERVATIONS (WEST)

CITY           SKY/WX    TMP DP  RH WIND       PRES   REMARKS
POSSUM KINGDOM   N/A    N/A N/A N/A SE8         N/A
LBJ GRASSLAND    N/A     93  63  36 SE9         N/A  HX  94
GRANBURY         N/A     91  63  38 E9G17       N/A  HX  92
HAMBY            N/A     93  57  29 SE7G15      N/A  HX  92
IVIE RESERVOIR   N/A     95  59  30 E10         N/A  HX  94
COLORADO BEND    N/A     93  59  31 S9          N/A  HX  92
$$

SUPPLEMENTAL OBSERVATIONS (EAST)

CITY           SKY/WX    TMP DP  RH WIND       PRES   REMARKS
CLARKSVILLE      N/A     93  63  36 SE3G13      N/A  HX  94
CADDO LAKE       N/A     93  66  40 E3          N/A  HX  96
GILMER           N/A     91  66  43 E5          N/A  HX  94
HENDERSON        N/A     91  68  46 NE7         N/A  HX  95
LUFKIN           N/A     91  68  46 MISG        N/A  HX  95
N SABINE NF      N/A     99  64  32 MISG        N/A  HX 101
S SABINE NF      N/A     93  66  40 E5          N/A  HX  96
$$

SUPPLEMENTAL OBSERVATIONS ARE A COLLECTION OF AUTOMATED INSTRUMENTS
THAT ARE MAINTAINED BY A VARIETY OF FEDERAL AND STATE AGENCIES.
CERTAIN ELEMENTS...SUCH AS HUMIDITY VALUES AND SUSTAINED WIND
SPEEDS...MAY BE APPROXIMATED.



USA.gov is the U.S. government's official web portal to all federal, state and local government web resources and services.